Regional Weather Roundup
Issued by NWS

Home | Current Version | Previous Version | Text Only | Print | Product List | Glossary On
Versions: 1 2 3 4 5 6 7 8 9 10 11 12 13 14 15 16 17 18 19 20 21 22 23 24 25 26 27 28 29 30 31 32 33 34 35 36 37 38 39 40 41 42 43 44 45 46 47 48 49 50
703
ASUS46 KPQR 010610
RWROR

OREGON REGIONAL WEATHER ROUNDUP
NATIONAL WEATHER SERVICE PORTLAND OR
1100 PM PDT SAT APR 30 2016

NOTE: "FAIR" INDICATES FEW OR NO CLOUDS BELOW 12,000 FEET WITH
NO SIGNIFICANT WEATHER AND/OR OBSTRUCTIONS TO VISIBILITY.

ORZ001>013-010700-
NORTHWEST OREGON


CITY           SKY/WX    TMP DP  RH WIND       PRES   REMARKS
ASTORIA        CLEAR     49  46  90 CALM      30.28F
6HR MIN TEMP:  49; 6HR MAX TEMP:  61;

NEWPORT        CLEAR     45  43  93 CALM      30.26F
PORTLAND       CLEAR     59  45  59 NW7       30.23S
6HR MIN TEMP:  58; 6HR MAX TEMP:  70;

VANCOUVER WA   CLEAR     60  44  55 VRB5      30.22S
6HR MIN TEMP:  59; 6HR MAX TEMP:  69;

SCAPPOOSE      CLEAR     60  43  53 NW10G21   30.22F
6HR MIN TEMP:  60; 6HR MAX TEMP:  69;

HILLSBORO      CLEAR     56  46  69 W9        30.23S
6HR MIN TEMP:  56; 6HR MAX TEMP:  70;

AURORA         CLEAR     56  44  64 N6        30.23F
6HR MIN TEMP:  53; 6HR MAX TEMP:  68;

MCMINNVILLE    CLEAR     53  44  71 CALM      30.23F
6HR MIN TEMP:  53; 6HR MAX TEMP:  70;

SALEM          CLEAR     53  46  77 NW5       30.21F
6HR MIN TEMP:  53; 6HR MAX TEMP:  67;

CORVALLIS        N/A     54  48  82 W7        30.23S
EUGENE         CLEAR     50  46  86 CALM      30.21S
6HR MIN TEMP:  50; 6HR MAX TEMP:  64;

$$

ORZ021-028-010700-
SOUTHWEST OREGON


CITY           SKY/WX    TMP DP  RH WIND       PRES   REMARKS
NORTH BEND     CLEAR     54  52  94 N6        30.20F
6HR MIN TEMP:  54; 6HR MAX TEMP:  59;

BROOKINGS      CLEAR     65  43  44 NE9G18    30.05S
ROSEBURG       CLEAR     56  44  64 CALM      30.18S
6HR MIN TEMP:  56; 6HR MAX TEMP:  68;

SEXTON SUMMIT  CLEAR     43  41  93 N14       30.15S
6HR MIN TEMP:  43; 6HR MAX TEMP:  53;

MEDFORD        CLEAR     55  45  68 CALM      30.13S
6HR MIN TEMP:  55; 6HR MAX TEMP:  71;

$$

ORZ014>016-041-010700-
COLUMBIA GORGE


CITY           SKY/WX    TMP DP  RH WIND       PRES   REMARKS
TROUTDALE      CLEAR     56  43  61 CALM      30.22S
6HR MIN TEMP:  55; 6HR MAX TEMP:  71;

THE DALLES     CLEAR     59  46  62 NW5       30.21R
6HR MIN TEMP:  59; 6HR MAX TEMP:  74;

$$

ORZ029>031-041-044-049-050-061>064-502-503-505>511-010700-
EASTERN OREGON


CITY           SKY/WX    TMP DP  RH WIND       PRES   REMARKS
REDMOND        CLEAR     40  29  64 CALM      30.21F
6HR MIN TEMP:  40; 6HR MAX TEMP:  65;

BEND           CLEAR     46  32  57 CALM      30.22F
PRINEVILLE     CLEAR     41  30  65 NW5       30.22S
KLAMATH FALLS  CLEAR     49  31  49 NE6       30.15S
6HR MIN TEMP:  49; 6HR MAX TEMP:  63;

LAKEVIEW       MOCLDY    45  30  57 N13       30.18R
HERMISTON      CLEAR     51  43  74 SE7       30.20F
6HR MIN TEMP:  49; 6HR MAX TEMP:  75;

PENDLETON      CLEAR     46  41  82 E5        30.21S
6HR MIN TEMP:  46; 6HR MAX TEMP:  66;

JOHN DAY       PTCLDY    48  37  65 N10       30.19F
MEACHAM        CLEAR     36  33  89 CALM      30.23S
6HR MIN TEMP:  36; 6HR MAX TEMP:  53;

LA GRANDE      PTCLDY    48  34  57 NW10      30.21S
6HR MIN TEMP:  46; 6HR MAX TEMP:  61;

BAKER CITY     CLEAR     45  37  73 W15       30.18F
6HR MIN TEMP:  44; 6HR MAX TEMP:  57;

BURNS          CLEAR     45  31  58 NW10      30.16F
6HR MIN TEMP:  45; 6HR MAX TEMP:  61;

ROME             N/A     46  33  60 NE7       30.13S
6HR MIN TEMP:  46; 6HR MAX TEMP:  65;

ONTARIO        PTCLDY    52  37  56 NW9       30.10F
6HR MIN TEMP:  52; 6HR MAX TEMP:  65;

$$




USA.gov is the U.S. government's official web portal to all federal, state and local government web resources and services.